Linton, ND

3:25 AM CST on January 19, 2017 (GMT -0600)
Linton Municipal Airport

Weather History for K7L2 - April, 2014

Change the Weather History Date:

Saturday, April 19, 2014

  Actual Average (KBIS) Record (KBIS)
Temperature  
Mean Temperature 50 °F -  
Max Temperature 66 °F 58 °F 86 °F (1961)
Min Temperature 35 °F 34 °F 4 °F (1928)
Degree Days  
Heating Degree Days 14    
Moisture  
Dew Point 34 °F    
Average Humidity 54    
Maximum Humidity 100    
Minimum Humidity 24    
Precipitation  
Precipitation 0.00 in - - ()
Sea Level Pressure  
Sea Level Pressure 29.88 in    
Wind  
Wind Speed 13 mph (WNW)    
Max Wind Speed 23 mph    
Max Gust Speed 31 mph    
Visibility 10 miles    
Events      
Averages and records for this station are not official NWS values.
T = Trace of Precipitation, MM = Missing Value Source: NWS Daily Summary

Daily Weather History Graph

Daily Weather History Graph

Search for Another Location

Airport or City:

Trip Planner

Search our weather history database for the weather conditions in past years. The results will help you decide how hot, cold, wet, or windy it might be!

Date:

Astronomy

Apr. 19, 2014 Rise Set
Actual Time 6:47 AM CDT 8:33 PM CDT
Civil Twilight 6:15 AM CDT 9:05 PM CDT
Nautical Twilight 5:36 AM CDT 9:44 PM CDT
Astronomical Twilight 4:54 AM CDT 10:27 PM CDT
Moon 12:27 AM CDT 9:59 AM CDT
Length of Visible Light 14h 50m
Length of Day
13h 46m
Waning Gibbous, 78% of the Moon is Illuminated
Apr 19
Waning Gibbous
Apr 22
Last Quarter
Apr 29
New
May 6
First Quarter
May 14
Full

Hourly Weather History & Observations

Time (CDT) Temp. Windchill Dew Point Humidity Pressure Visibility Wind Dir Wind Speed Gust Speed Precip Events Conditions
12:15 AM 59.0 °F - 44.6 °F 59% 29.61 in 10.0 mi SW 11.5 mph - N/A   Clear
12:35 AM 59.0 °F - 42.8 °F 55% 29.61 in 10.0 mi SSW 12.7 mph - N/A   Clear
12:55 AM 59.0 °F - 42.8 °F 55% 29.62 in 10.0 mi SW 15.0 mph - N/A   Clear
1:15 AM 51.8 °F - 41.0 °F 67% 29.65 in 10.0 mi West 12.7 mph - N/A   Clear
1:35 AM 48.2 °F - 41.0 °F 76% 29.66 in 10.0 mi West 10.4 mph 16.1 mph N/A   Clear
1:55 AM 46.4 °F 41.1 °F 39.2 °F 76% 29.70 in 10.0 mi West 11.5 mph - N/A   Clear
2:15 AM 44.6 °F 39.2 °F 41.0 °F 87% 29.73 in 10.0 mi West 10.4 mph - N/A   Clear
2:35 AM 46.4 °F 38.7 °F 41.0 °F 81% 29.75 in 10.0 mi West 20.7 mph 29.9 mph N/A   Clear
2:55 AM 46.4 °F 39.5 °F 41.0 °F 81% 29.79 in 10.0 mi WNW 17.3 mph 24.2 mph N/A   Partly Cloudy
3:15 AM 46.4 °F 39.5 °F 42.8 °F 87% 29.79 in 10.0 mi WNW 17.3 mph 20.7 mph N/A   Scattered Clouds
3:35 AM 46.4 °F 40.7 °F 41.0 °F 81% 29.78 in 10.0 mi WNW 12.7 mph 18.4 mph N/A   Mostly Cloudy
3:55 AM 44.6 °F 40.2 °F 41.0 °F 87% 29.78 in 10.0 mi WNW 8.1 mph - N/A   Scattered Clouds
4:15 AM 42.8 °F 39.3 °F 41.0 °F 93% 29.78 in 10.0 mi WSW 5.8 mph - N/A   Clear
4:35 AM 44.6 °F 39.7 °F 41.0 °F 87% 29.79 in 10.0 mi WNW 9.2 mph - N/A   Clear
4:55 AM 42.8 °F 37.5 °F 39.2 °F 87% 29.80 in 10.0 mi NW 9.2 mph - N/A   Partly Cloudy
5:15 AM 41.0 °F 37.1 °F 39.2 °F 93% 29.80 in 10.0 mi NW 5.8 mph - N/A   Partly Cloudy
5:35 AM 39.2 °F 33.0 °F 37.4 °F 93% 29.80 in 10.0 mi WNW 9.2 mph - N/A   Clear
5:55 AM 39.2 °F 32.5 °F 39.2 °F 100% 29.81 in 10.0 mi WNW 10.4 mph - N/A   Scattered Clouds
6:15 AM 39.2 °F 32.0 °F 39.2 °F 100% 29.82 in 10.0 mi WNW 11.5 mph - N/A   Partly Cloudy
6:35 AM 37.4 °F 30.3 °F 37.4 °F 100% 29.83 in 10.0 mi NW 10.4 mph - N/A   Clear
6:55 AM 35.6 °F 28.6 °F 35.6 °F 100% 29.84 in 10.0 mi NW 9.2 mph - N/A   Clear
7:15 AM 35.6 °F 28.0 °F 35.6 °F 100% 29.84 in 10.0 mi NW 10.4 mph - N/A   Clear
7:35 AM 37.4 °F 31.4 °F 37.4 °F 100% 29.86 in 10.0 mi WNW 8.1 mph - N/A   Clear
7:55 AM 41.0 °F 35.2 °F 35.6 °F 81% 29.88 in 10.0 mi West 9.2 mph - N/A   Clear
8:15 AM 44.6 °F 37.4 °F 35.6 °F 71% 29.89 in 10.0 mi West 16.1 mph 20.7 mph N/A   Clear
8:35 AM 46.4 °F 40.1 °F 32.0 °F 57% 29.90 in 10.0 mi West 15.0 mph - N/A   Clear
8:55 AM 48.2 °F - 32.0 °F 54% 29.91 in 10.0 mi West 16.1 mph 23.0 mph N/A   Clear
9:15 AM 48.2 °F - 30.2 °F 50% 29.91 in 10.0 mi West 17.3 mph 23.0 mph N/A   Clear
9:35 AM 50.0 °F - 28.4 °F 43% 29.91 in 10.0 mi West 19.6 mph 24.2 mph N/A   Clear
9:55 AM 50.0 °F - 28.4 °F 43% 29.92 in 10.0 mi West 20.7 mph 26.5 mph N/A   Clear
10:15 AM 53.6 °F - 28.4 °F 38% 29.92 in 10.0 mi West 20.7 mph 26.5 mph N/A   Clear
10:35 AM 55.4 °F - 26.6 °F 33% 29.92 in 10.0 mi West 19.6 mph 27.6 mph N/A   Clear
10:55 AM 53.6 °F - 28.4 °F 38% 29.92 in 10.0 mi West 19.6 mph 28.8 mph N/A   Clear
11:15 AM 55.4 °F - 26.6 °F 33% 29.92 in 10.0 mi West 19.6 mph 24.2 mph N/A   Clear
11:35 AM 57.2 °F - 28.4 °F 33% 29.93 in 10.0 mi WNW 21.9 mph 31.1 mph N/A   Clear
11:55 AM 59.0 °F - 28.4 °F 31% 29.93 in 10.0 mi West 23.0 mph 31.1 mph N/A   Clear
12:15 PM 59.0 °F - 28.4 °F 31% 29.92 in 10.0 mi West 20.7 mph 31.1 mph N/A   Clear
12:35 PM 59.0 °F - 28.4 °F 31% 29.92 in 10.0 mi West 21.9 mph 29.9 mph N/A   Clear
12:55 PM 60.8 °F - 28.4 °F 29% 29.93 in 10.0 mi West 17.3 mph 25.3 mph N/A   Clear
1:15 PM 60.8 °F - 28.4 °F 29% 29.93 in 10.0 mi West 16.1 mph 27.6 mph N/A   Clear
1:35 PM 62.6 °F - 30.2 °F 30% 29.93 in 10.0 mi WSW 13.8 mph 21.9 mph N/A   Clear
1:55 PM 62.6 °F - 28.4 °F 27% 29.93 in 10.0 mi West 19.6 mph 23.0 mph N/A   Clear
2:15 PM 64.4 °F - 28.4 °F 26% 29.93 in 10.0 mi West 16.1 mph 25.3 mph N/A   Clear
2:35 PM 64.4 °F - 28.4 °F 26% 29.93 in 10.0 mi WNW 15.0 mph 26.5 mph N/A   Clear
2:55 PM 64.4 °F - 28.4 °F 26% 29.93 in 10.0 mi West 19.6 mph 27.6 mph N/A   Clear
3:15 PM 64.4 °F - 28.4 °F 26% 29.93 in 10.0 mi WNW 18.4 mph 27.6 mph N/A   Clear
3:35 PM 66.2 °F - 28.4 °F 24% 29.93 in 10.0 mi WNW 19.6 mph 23.0 mph N/A   Clear
3:55 PM 66.2 °F - 30.2 °F 26% 29.93 in 10.0 mi West 12.7 mph 20.7 mph N/A   Clear
4:15 PM 66.2 °F - 28.4 °F 24% 29.93 in 10.0 mi WNW 15.0 mph - N/A   Clear
4:35 PM 66.2 °F - 28.4 °F 24% 29.93 in 10.0 mi West 12.7 mph 23.0 mph N/A   Clear
4:55 PM 66.2 °F - 30.2 °F 26% 29.93 in 10.0 mi West 16.1 mph 27.6 mph N/A   Clear
5:15 PM 66.2 °F - 28.4 °F 24% 29.93 in 10.0 mi West 15.0 mph 21.9 mph N/A   Clear
5:35 PM 66.2 °F - 30.2 °F 26% 29.93 in 10.0 mi West 11.5 mph 23.0 mph N/A   Clear
5:55 PM 66.2 °F - 32.0 °F 28% 29.93 in 10.0 mi West 9.2 mph 17.3 mph N/A   Clear
6:15 PM 66.2 °F - 32.0 °F 28% 29.93 in 10.0 mi WNW 17.3 mph 20.7 mph N/A   Clear
6:35 PM 66.2 °F - 32.0 °F 28% 29.94 in 10.0 mi WNW 11.5 mph - N/A   Clear
6:55 PM 64.4 °F - 32.0 °F 30% 29.95 in 10.0 mi WNW 15.0 mph - N/A   Clear
7:15 PM 64.4 °F - 33.8 °F 32% 29.95 in 10.0 mi NW 12.7 mph 17.3 mph N/A   Clear
7:35 PM 62.6 °F - 32.0 °F 32% 29.95 in 10.0 mi WNW 11.5 mph - N/A   Clear
7:55 PM 60.8 °F - 35.6 °F 39% 29.96 in 10.0 mi WNW 8.1 mph - N/A   Clear
8:15 PM 57.2 °F - 35.6 °F 44% 29.96 in 10.0 mi WNW 5.8 mph - N/A   Clear
8:35 PM 55.4 °F - 35.6 °F 47% 29.97 in 10.0 mi NW 4.6 mph - N/A   Clear
8:55 PM 53.6 °F - 33.8 °F 47% 29.97 in 10.0 mi NNW 3.5 mph - N/A   Clear
9:15 PM 51.8 °F - 32.0 °F 47% 29.98 in 10.0 mi Calm Calm - N/A   Clear
9:35 PM 50.0 °F - 32.0 °F 50% 29.98 in 10.0 mi Calm Calm - N/A   Clear
9:55 PM 48.2 °F - 32.0 °F 54% 29.99 in 10.0 mi East 5.8 mph - N/A   Clear
10:15 PM 44.6 °F 39.7 °F 32.0 °F 61% 29.99 in 10.0 mi East 9.2 mph - N/A   Clear
10:35 PM 44.6 °F 40.7 °F 33.8 °F 66% 29.99 in 10.0 mi East 6.9 mph - N/A   Clear
10:55 PM 44.6 °F 40.2 °F 33.8 °F 66% 29.99 in 10.0 mi East 8.1 mph - N/A   Clear
11:15 PM 44.6 °F 39.7 °F 35.6 °F 71% 29.99 in 10.0 mi ESE 9.2 mph - N/A   Clear
11:35 PM 44.6 °F 39.7 °F 35.6 °F 71% 29.99 in 10.0 mi ESE 9.2 mph - N/A   Clear
11:55 PM 42.8 °F 38.0 °F 35.6 °F 76% 29.99 in 10.0 mi East 8.1 mph - N/A   Clear